Wind_Speed
34 43 41 45 40 39 42 47 46 44 46 45 46 42 43 47 50 51 47 54 61 64 64 65 73 81 75 76 68 65 62 64 64 68 73 74 76 79 80 84 96 99 95 94 92 92 89 87 83
42 44 41 43 40 41 45 47 46 48 47 49 43 43 48 51 52 46 47 59 65 67 64 72 78 80 77 72 69 63 61 61 64 69 73 75 77 79 79 83 85 96 100 100 95 91 91 89 88
47 49 43 45 47 47 49 49 50 48 49 49 47 44 48 51 47 49 57 62 68 65 71 78 82 80 73 68 62 59 57 59 62 66 70 73 77 80 79 81 85 88 96 104 98 97 93 92 90
51 50 47 47 50 49 52 49 50 51 59 53 49 45 49 50 52 56 58 65 67 68 76 81 87 78 71 65 61 59 57 58 60 65 67 68 71 76 78 79 84 90 92 99 104 100 98 94 92
55 48 49 51 48 51 54 54 54 56 54 53 48 47 50 54 55 58 61 66 69 74 80 82 82 76 71 66 64 64 60 57 55 57 61 65 66 71 75 77 82 87 95 95 99 101 101 97 94
52 48 51 50 49 51 58 57 56 54 56 56 50 51 53 56 59 58 64 67 73 75 81 81 83 76 69 66 65 63 58 52 48 48 51 58 62 65 70 77 79 84 92 98 97 101 101 101 96
46 53 54 53 56 59 54 55 55 53 57 59 56 53 53 61 59 62 65 70 73 76 85 86 84 74 67 66 65 60 54 52 49 45 47 52 58 62 65 72 77 79 85 95 100 100 103 101 100
50 58 57 57 61 57 57 55 50 53 57 57 55 55 56 67 61 65 62 71 73 80 88 89 85 73 67 67 61 54 51 50 49 49 47 47 53 58 59 63 69 76 77 82 93 97 100 102 99
55 62 58 57 60 60 58 51 53 54 52 54 55 54 61 61 61 65 66 73 81 84 89 93 82 69 67 65 59 53 49 46 44 41 42 41 43 49 55 57 59 65 72 77 80 88 96 98 98
62 67 58 60 61 57 51 50 50 53 52 49 53 56 62 62 70 69 70 78 83 89 93 94 78 69 68 63 56 49 43 39 38 37 36 35 37 39 43 50 49 53 59 67 74 80 86 91 97
71 66 62 60 53 49 51 50 50 47 48 51 53 56 60 64 69 67 74 80 87 91 90 88 73 70 67 59 51 42 39 36 33 31 29 28 29 33 37 40 41 44 49 54 62 73 79 86 91
67 65 58 53 52 50 50 49 44 45 46 51 53 58 62 68 70 71 75 84 84 87 87 81 70 70 63 55 45 39 35 32 29 28 25 24 25 27 33 34 35 38 41 46 51 60 74 82 87
62 59 52 54 51 51 47 45 44 49 50 52 56 59 64 67 68 73 76 84 86 81 82 73 69 65 60 47 42 36 32 27 21 20 20 20 21 24 25 26 29 31 35 39 46 54 64 75 84
45 44 52 54 54 51 46 46 48 52 54 56 61 63 64 66 69 76 77 77 81 77 75 68 68 61 51 43 38 33 28 21 16 12 11 12 15 17 20 21 25 29 32 36 44 52 59 70 81
45 49 51 56 50 49 46 48 48 54 56 56 60 64 61 69 76 77 74 76 74 71 68 65 62 54 44 40 35 28 23 17 15 10 7 5 6 8 12 17 23 27 31 36 42 50 57 65 74
53 52 55 49 52 55 49 51 51 57 60 64 64 59 64 75 77 72 72 71 70 64 63 61 53 44 39 35 28 21 17 15 13 8 4 1 3 8 11 14 17 21 26 33 39 45 49 56 67
56 59 56 52 53 53 52 56 54 59 64 62 63 68 72 73 71 68 66 66 65 58 59 57 44 36 33 29 23 23 23 20 17 12 8 3 2 7 13 15 17 22 26 30 36 41 48 56 64
56 54 54 55 57 57 58 58 60 64 62 67 67 66 70 69 63 62 63 61 57 53 53 45 35 30 27 23 26 28 25 24 24 19 16 9 5 7 11 12 14 18 24 28 31 36 43 51 62
54 53 54 59 58 56 59 61 62 63 66 64 64 67 65 60 58 59 60 54 50 48 47 35 28 25 21 19 26 24 20 20 24 25 19 18 15 11 8 11 15 21 24 27 29 33 38 46 58
49 56 58 60 63 59 61 63 64 64 65 65 62 58 56 53 55 57 52 45 44 43 40 28 23 18 12 13 19 18 23 20 25 25 17 20 20 18 15 15 15 18 22 25 28 34 39 46 57
43 45 51 54 55 51 58 60 61 60 57 59 55 55 52 52 52 52 40 39 38 38 32 20 19 12 6 8 12 17 12 13 23 24 19 21 23 26 22 20 19 18 23 26 27 33 41 48 57
37 37 38 43 43 43 40 43 52 56 57 56 53 52 48 48 46 36 32 34 35 33 24 16 15 8 2 3 6 10 14 13 19 25 21 22 25 24 19 19 19 22 31 33 25 28 40 49 59
40 38 34 37 36 37 40 38 40 42 43 47 46 45 42 39 32 27 28 29 30 26 18 13 13 5 7 4 6 6 16 17 26 25 30 31 31 29 24 23 22 19 26 35 30 33 46 51 59
42 38 35 33 35 37 39 36 32 38 35 35 34 34 32 21 21 20 22 27 26 20 14 9 11 5 10 9 5 8 12 14 26 25 29 33 33 36 34 26 22 22 20 24 31 40 50 56 60
44 43 38 30 34 32 33 30 30 34 30 26 25 24 14 11 12 18 20 23 22 16 9 8 10 6 9 9 2 10 11 21 24 27 26 34 34 38 37 31 28 24 20 20 27 39 46 54 63
38 39 34 31 27 26 29 28 29 27 27 20 16 9 7 9 8 17 19 20 19 12 5 7 10 9 10 13 7 19 20 17 21 25 28 33 27 32 38 32 31 31 27 24 27 38 47 55 57
37 34 35 28 23 24 24 23 29 27 23 18 11 5 6 6 9 15 17 16 15 8 2 6 10 12 9 17 13 20 17 21 19 25 23 25 32 31 33 33 26 32 30 27 29 34 38 46 47
38 38 34 27 23 24 28 27 30 27 22 16 12 8 8 6 8 11 15 12 11 7 2 6 10 11 12 9 21 16 16 13 15 23 19 31 30 31 29 34 27 30 23 32 28 31 38 40 38
32 37 35 31 27 25 25 29 27 24 19 15 13 11 12 5 5 9 13 8 8 7 5 5 11 9 13 10 21 20 17 16 17 23 20 18 20 27 27 31 27 27 28 26 23 24 23 29 36
37 34 37 36 29 23 24 23 24 24 21 17 12 12 14 8 4 4 9 6 3 5 7 5 10 12 9 13 19 24 21 18 23 25 20 22 19 25 27 22 21 24 26 26 23 21 20 18 22
Wind_Direction
316 314 313 314 310 315 314 317 311 307 312 315 313 304 308 307 306 304 296 301 307 309 303 302 309 309 301 298 291 284 279 271 267 264 263 262 256 252 246 244 240 235 236 238 238 238 235 231 233
312 313 309 310 306 312 312 316 309 303 310 314 310 303 303 308 307 299 296 305 308 309 306 308 311 310 305 299 294 288 283 276 269 266 264 261 257 252 249 242 239 237 234 235 237 236 237 234 231
322 314 307 308 311 307 309 314 311 303 311 309 308 303 308 309 307 299 300 306 308 307 307 309 315 316 308 300 293 288 285 280 274 267 263 259 257 254 246 242 237 233 233 233 234 235 234 234 234
317 316 307 306 306 306 305 312 311 302 308 310 309 304 308 311 310 302 303 311 311 311 313 316 316 318 313 308 304 298 291 283 277 270 265 257 253 250 247 239 235 231 229 230 231 233 232 230 231
314 308 303 301 303 303 302 307 312 302 305 309 307 301 308 312 309 306 307 315 313 313 316 318 321 321 317 312 307 301 294 286 277 268 263 259 252 246 245 242 234 231 229 226 226 229 229 227 227
305 306 302 298 299 303 308 307 308 300 302 305 305 296 303 311 309 310 310 316 315 319 322 320 326 323 318 312 308 304 299 291 282 270 260 256 253 247 242 240 237 231 228 226 223 225 227 225 224
300 303 298 294 299 300 303 305 306 299 303 307 305 298 301 310 309 310 313 314 318 319 323 324 327 322 317 315 312 306 300 294 286 276 263 253 252 251 245 240 238 235 228 227 225 223 224 223 221
293 301 296 292 296 303 303 304 301 298 303 305 299 296 299 307 308 310 312 317 317 323 325 328 326 322 319 317 310 304 298 288 283 280 270 259 251 249 250 244 240 239 232 229 226 224 223 221 219
296 301 290 296 298 294 298 298 301 298 302 298 293 301 307 306 308 311 313 318 321 322 327 329 324 322 322 316 311 306 299 288 282 277 269 260 252 246 246 247 242 238 235 230 226 224 222 222 219
291 296 289 296 294 294 293 295 294 301 299 292 295 308 306 304 307 310 317 320 321 323 327 328 325 325 322 317 313 308 298 291 284 278 272 263 255 249 242 242 241 236 234 232 227 221 221 220 219
294 288 288 294 287 287 295 297 296 300 291 296 305 310 302 304 309 315 317 320 321 325 328 329 327 326 322 317 315 308 302 295 292 286 278 269 257 247 243 238 236 235 232 228 224 219 217 216 216
289 288 290 285 282 289 294 298 295 293 294 299 309 306 300 305 307 311 321 320 322 327 329 329 327 327 321 321 315 314 307 304 297 289 279 268 254 243 239 238 230 226 225 222 219 217 214 212 212
289 286 280 280 282 291 298 290 288 290 295 297 306 306 302 304 304 313 321 322 324 328 329 328 328 326 322 321 322 318 313 308 298 284 271 258 248 241 236 230 225 221 216 212 211 211 211 211 210
286 275 274 278 282 286 290 285 285 286 292 297 302 303 305 304 309 317 322 324 325 326 328 328 329 324 326 326 325 321 316 314 309 301 282 259 244 235 227 218 214 212 209 206 206 205 205 207 207
277 279 276 279 281 287 283 283 283 288 294 296 299 307 302 303 312 318 321 324 324 326 327 328 329 325 328 329 329 329 329 335 334 326 303 272 240 225 216 206 201 202 203 202 202 202 202 203 203
277 276 276 274 277 285 283 286 286 289 294 298 302 303 299 306 314 320 321 322 323 324 327 329 328 328 335 336 340 342 345 350 350 345 349 11 187 178 182 186 188 194 195 197 198 196 197 198 199
271 274 276 274 277 281 283 286 289 292 295 298 298 300 305 309 315 317 320 321 323 324 327 330 325 336 344 344 3 15 23 25 29 30 20 346 185 172 173 178 185 184 184 187 192 195 194 193 193
267 264 268 270 273 279 280 280 284 289 289 290 298 302 306 309 313 316 318 320 321 325 327 331 328 347 353 358 22 29 23 35 43 43 45 51 105 147 158 168 173 174 172 177 185 188 191 191 190
261 263 267 271 275 278 280 284 284 284 287 293 295 298 303 308 310 314 316 318 322 325 328 328 335 356 357 10 30 31 36 34 46 51 58 69 80 96 122 153 165 167 168 171 178 182 180 180 184
265 261 262 267 269 271 277 278 281 285 286 288 293 299 303 306 310 312 315 318 322 325 328 326 346 5 358 12 32 37 67 39 41 64 80 81 89 94 104 133 152 159 170 167 170 167 168 172 176
268 264 262 267 274 277 279 281 281 283 286 288 295 298 300 305 310 310 314 321 322 326 330 327 356 12 355 38 24 43 39 49 62 89 82 73 82 99 112 125 128 146 141 132 145 153 158 163 170
278 272 274 275 280 285 289 284 284 282 284 289 292 294 299 304 307 309 316 318 322 323 333 334 6 23 149 82 34 58 58 48 77 85 93 92 86 82 97 102 109 126 127 127 126 142 152 159 164
276 281 283 284 288 290 290 290 290 294 290 287 292 295 299 302 307 310 317 318 323 323 329 346 14 39 156 206 123 69 87 87 94 94 103 99 95 90 93 89 93 110 134 138 153 145 156 163 163
277 282 287 291 284 284 290 299 294 290 298 295 292 294 299 304 303 322 319 321 322 328 325 6 15 62 167 207 97 130 111 99 98 95 106 104 97 88 82 95 91 106 113 144 162 166 162 162 164
280 281 280 284 285 294 298 293 283 295 293 297 298 301 299 301 306 323 325 323 324 330 325 35 36 69 176 205 113 114 139 115 111 95 99 94 92 90 81 96 86 111 107 127 144 159 162 165 169
281 280 282 276 292 293 297 295 289 291 292 291 293 298 294 307 311 320 328 326 328 335 317 50 67 59 171 196 153 149 135 120 119 116 115 108 102 103 88 75 77 92 105 120 139 157 162 169 173
284 278 281 281 277 281 293 300 288 293 297 291 272 251 282 268 306 316 330 326 331 342 277 64 81 67 75 179 189 157 149 120 111 122 131 124 114 106 100 99 81 83 88 106 130 146 159 171 178
284 281 276 281 271 272 282 287 289 299 283 264 244 227 237 270 311 317 336 328 335 342 179 72 78 82 65 141 185 171 174 137 137 122 134 130 116 120 113 101 94 95 89 86 108 134 148 162 171
287 282 275 276 272 272 282 289 298 294 265 245 229 220 225 272 314 331 342 326 345 348 197 100 80 89 72 93 171 176 173 162 147 149 126 105 112 129 127 113 111 124 121 94 92 102 133 155 174
295 280 280 271 268 273 279 297 300 291 275 247 211 224 224 250 282 328 346 319 357 349 224 135 94 81 83 83 162 175 176 170 161 164 151 128 110 137 132 138 123 131 133 138 126 128 111 130 147
Height
10912 10910 10906 10903 10902 10898 10894 10889 10884 10881 10877 10872 10869 10866 10863 10859 10855 10852 10848 10844 10837 10831 10828 10822 10813 10804 10794 10783 10778 10776 10773 10771 10772 10771 10772 10773 10777 10782 10790 10802 10811 10822 10832 10842 10852 10862 10874 10884 10893
10908 10905 10900 10897 10894 10891 10887 10884 10879 10875 10871 10866 10861 10858 10854 10851 10848 10843 10838 10832 10826 10820 10813 10806 10798 10786 10775 10768 10759 10755 10753 10752 10751 10749 10750 10749 10753 10760 10768 10776 10787 10797 10811 10823 10832 10844 10857 10870 10880
10901 10898 10894 10890 10887 10884 10880 10877 10873 10869 10863 10860 10855 10851 10846 10841 10838 10835 10829 10823 10815 10808 10801 10791 10780 10769 10757 10749 10743 10738 10735 10731 10728 10726 10727 10727 10729 10733 10742 10752 10762 10773 10786 10800 10812 10823 10839 10852 10864
10894 10891 10886 10884 10881 10877 10872 10869 10866 10862 10856 10851 10847 10843 10837 10832 10828 10823 10820 10813 10804 10796 10787 10774 10763 10749 10737 10728 10720 10716 10716 10713 10709 10704 10702 10705 10708 10710 10716 10727 10737 10750 10762 10777 10790 10801 10817 10833 10848
10888 10886 10881 10875 10872 10872 10864 10860 10858 10856 10848 10843 10840 10835 10831 10826 10820 10814 10808 10802 10792 10783 10773 10761 10748 10733 10722 10711 10703 10697 10693 10690 10689 10685 10682 10681 10686 10689 10694 10703 10714 10725 10737 10752 10766 10780 10796 10815 10831
10881 10877 10874 10868 10862 10862 10858 10852 10847 10844 10841 10837 10831 10825 10824 10817 10810 10805 10798 10789 10780 10770 10758 10746 10731 10719 10708 10699 10689 10680 10674 10669 10667 10665 10665 10662 10664 10668 10674 10680 10689 10702 10714 10728 10746 10759 10773 10794 10812
10871 10870 10867 10862 10856 10854 10848 10843 10839 10834 10831 10828 10824 10817 10815 10808 10801 10794 10787 10779 10768 10759 10747 10732 10719 10707 10697 10686 10675 10666 10658 10651 10648 10649 10648 10649 10648 10649 10655 10662 10670 10681 10695 10708 10724 10740 10753 10774 10795
10862 10860 10858 10853 10848 10845 10842 10835 10829 10826 10824 10818 10813 10812 10807 10799 10792 10786 10778 10770 10760 10747 10734 10720 10707 10694 10683 10673 10663 10655 10647 10640 10634 10632 10632 10632 10634 10634 10638 10646 10654 10664 10677 10691 10705 10722 10738 10756 10778
10854 10850 10847 10843 10838 10833 10831 10826 10821 10818 10816 10810 10804 10803 10798 10790 10783 10776 10767 10757 10746 10735 10722 10710 10696 10683 10670 10658 10649 10641 10634 10626 10622 10620 10617 10619 10621 10623 10626 10629 10638 10648 10658 10673 10688 10706 10723 10741 10762
10843 10838 10837 10832 10830 10825 10819 10816 10811 10809 10805 10800 10798 10795 10788 10781 10773 10765 10753 10743 10734 10721 10708 10695 10681 10668 10656 10645 10636 10628 10621 10616 10611 10608 10607 10607 10609 10610 10613 10617 10624 10633 10644 10655 10671 10688 10706 10724 10746
10833 10826 10826 10820 10818 10813 10811 10808 10803 10800 10795 10789 10788 10785 10777 10771 10763 10754 10745 10734 10722 10709 10696 10683 10668 10656 10645 10635 10626 10618 10611 10605 10601 10598 10597 10597 10598 10601 10603 10608 10616 10623 10630 10642 10655 10671 10690 10704 10724
10822 10817 10815 10811 10809 10805 10801 10798 10795 10792 10788 10781 10779 10775 10768 10763 10756 10747 10736 10726 10713 10699 10684 10671 10659 10648 10636 10626 10617 10609 10602 10596 10592 10590 10588 10589 10590 10592 10595 10600 10606 10612 10621 10631 10643 10657 10670 10686 10707
10810 10807 10803 10801 10801 10796 10793 10789 10787 10783 10780 10774 10771 10767 10760 10754 10747 10737 10726 10715 10702 10689 10678 10664 10652 10640 10629 10619 10609 10601 10595 10590 10586 10584 10582 10582 10584 10586 10589 10593 10599 10605 10612 10621 10631 10642 10655 10672 10690
10796 10796 10794 10792 10791 10788 10784 10781 10780 10775 10772 10768 10764 10759 10752 10745 10738 10728 10716 10704 10693 10682 10672 10660 10647 10633 10623 10613 10604 10595 10590 10586 10582 10580 10579 10579 10580 10582 10585 10589 10594 10599 10605 10613 10622 10633 10644 10659 10677
10784 10785 10785 10783 10780 10778 10776 10771 10769 10766 10763 10760 10756 10751 10744 10736 10728 10719 10708 10698 10688 10677 10667 10655 10643 10630 10620 10610 10601 10594 10588 10584 10580 10578 10577 10577 10578 10580 10584 10586 10591 10596 10602 10608 10616 10625 10635 10649 10669
10775 10775 10775 10772 10769 10767 10767 10762 10762 10755 10752 10750 10747 10742 10736 10729 10720 10711 10702 10693 10683 10673 10664 10653 10640 10630 10619 10609 10601 10594 10587 10582 10579 10578 10577 10576 10577 10579 10583 10586 10589 10594 10599 10605 10613 10621 10632 10645 10661
10765 10764 10763 10762 10759 10758 10757 10752 10753 10748 10743 10739 10736 10734 10727 10721 10713 10705 10698 10689 10679 10670 10662 10651 10640 10629 10619 10610 10603 10595 10588 10584 10581 10579 10578 10578 10578 10579 10582 10586 10590 10593 10598 10604 10612 10619 10629 10640 10655
10756 10757 10755 10752 10748 10749 10747 10745 10743 10739 10733 10731 10728 10725 10719 10713 10707 10700 10693 10684 10675 10668 10660 10649 10640 10629 10620 10614 10607 10600 10594 10589 10586 10583 10581 10581 10581 10583 10585 10588 10592 10595 10599 10605 10611 10618 10627 10639 10652
10746 10747 10743 10740 10737 10741 10736 10735 10731 10730 10726 10721 10719 10717 10713 10707 10701 10694 10687 10679 10672 10665 10658 10649 10639 10630 10623 10618 10612 10607 10601 10597 10595 10592 10589 10586 10585 10587 10589 10592 10594 10597 10600 10605 10611 10619 10628 10639 10653
10733 10735 10735 10731 10728 10736 10730 10726 10721 10720 10714 10710 10712 10709 10705 10700 10694 10688 10681 10674 10668 10663 10656 10649 10639 10631 10627 10622 10619 10616 10610 10605 10603 10600 10597 10596 10594 10594 10596 10597 10600 10602 10605 10608 10613 10620 10630 10642 10657
10723 10723 10722 10723 10720 10725 10723 10718 10711 10707 10705 10698 10704 10700 10698 10694 10689 10682 10676 10670 10665 10660 10653 10648 10639 10633 10630 10627 10623 10620 10618 10614 10611 10609 10606 10603 10603 10602 10602 10604 10606 10609 10613 10614 10621 10628 10636 10648 10664
10713 10711 10715 10714 10714 10712 10711 10708 10701 10696 10695 10693 10693 10692 10691 10688 10683 10677 10671 10666 10663 10657 10652 10646 10639 10634 10633 10631 10628 10626 10624 10621 10617 10615 10613 10611 10610 10611 10611 10611 10612 10614 10617 10619 10628 10640 10647 10658 10670
10702 10704 10706 10705 10705 10702 10696 10697 10693 10688 10687 10684 10685 10684 10683 10682 10678 10672 10667 10664 10660 10655 10650 10645 10639 10635 10634 10634 10634 10632 10630 10629 10623 10621 10619 10618 10618 10619 10620 10620 10621 10622 10628 10629 10637 10652 10659 10667 10675
10693 10694 10696 10697 10695 10691 10688 10690 10684 10678 10679 10677 10677 10677 10678 10677 10674 10668 10664 10661 10658 10652 10649 10645 10639 10636 10635 10635 10637 10638 10634 10633 10629 10629 10626 10624 10625 10626 10627 10629 10629 10631 10635 10641 10647 10655 10662 10672 10684
10685 10687 10688 10689 10684 10683 10682 10680 10677 10673 10671 10672 10672 10673 10674 10671 10669 10665 10662 10658 10655 10651 10649 10645 10641 10637 10636 10637 10638 10641 10640 10638 10635 10637 10635 10634 10634 10635 10637 10638 10639 10639 10642 10645 10651 10659 10669 10680 10691
10678 10679 10679 10679 10681 10677 10675 10674 10671 10668 10667 10668 10668 10669 10670 10667 10666 10664 10660 10656 10653 10650 10648 10645 10642 10639 10638 10639 10641 10643 10644 10643 10641 10642 10642 10642 10643 10645 10646 10647 10650 10650 10652 10654 10659 10665 10674 10684 10696
10671 10671 10670 10673 10674 10671 10668 10668 10664 10664 10665 10665 10664 10665 10665 10665 10664 10662 10659 10655 10651 10649 10648 10645 10643 10641 10639 10641 10644 10646 10648 10648 10648 10649 10650 10649 10652 10654 10655 10657 10660 10660 10662 10666 10669 10675 10682 10692 10702
10665 10665 10666 10666 10666 10664 10663 10662 10658 10660 10660 10659 10659 10661 10663 10664 10662 10660 10657 10654 10650 10648 10648 10645 10643 10643 10641 10640 10645 10648 10650 10653 10654 10655 10656 10658 10660 10661 10664 10667 10671 10672 10674 10676 10680 10685 10690 10699 10706
10658 10659 10658 10659 10658 10658 10658 10655 10654 10654 10654 10653 10655 10658 10661 10663 10660 10658 10656 10654 10650 10648 10649 10647 10644 10644 10643 10641 10645 10649 10652 10655 10657 10659 10659 10663 10666 10668 10671 10673 10677 10681 10684 10687 10690 10694 10699 10705 10711
10649 10651 10651 10652 10651 10654 10651 10653 10650 10652 10651 10650 10652 10655 10658 10661 10659 10656 10654 10653 10651 10649 10649 10647 10646 10645 10645 10644 10645 10650 10653 10656 10659 10662 10664 10667 10672 10675 10678 10680 10683 10688 10691 10695 10700 10705 10709 10712 10719